Flag for Macedonia, Republic of Weather past 2 weeks in Kumanovo, Macedonia, Republic of

Now
75 °F

Broken clouds.


Feels Like: 77 °F
Forecast: 59 / 80 °F
Wind: 2 mph from West

Location: Skopje-Petrovec

Current Time: Sep 21, 2014 at 6:29:31 PM

Latest Report: Sep 21, 2014 at 6:00 PM


Visibility: N/A

Pressure: 29.89 "Hg

Humidity: 69%

Dew point: 64 °F

Location of KumanovoLocation

Historic Weather in Kumanovo — Graph

°F

Kumanovo temperature yesterday

Maximum temperature yesterday: 72 °F (at 11:30 AM)
Minimum temperature yesterday: 57 °F (at 6:00 AM)
Average temperature yesterday: 64 °F

Past Weeks' High & Low Weather Summary

 TemperatureHumidityPressure
High84 °F (Sep 13, 2:00 PM)100% (Sep 6, 9:30 PM)30.27 "Hg (Sep 6, 9:30 PM)
Low50 °F (Sep 19, 6:30 AM)35% (Sep 10, 4:30 PM)29.77 "Hg (Sep 6, 5:00 PM)
Average67 °F77%30.01 "Hg
* Reported Sep 6 5:00 PM — Sep 21 5:30 PM, Kumanovo, Weather by CustomWeather, © 2014

Note: Actual official high and low records may vary slightly from our data, if they occured in-between our weather recording intervals... More about our weather records

Advertising

Kumanovo weather history for previous 24 hours

 ConditionsComfort  
Time TempWeatherWind HumidityBarometerVisibility
5:30 PM
Sep 21
75 °FBroken clouds.2 mph74%29.89 "HgN/A
5:00 PM77 °FPassing clouds.1 mph61%29.89 "HgN/A
4:30 PM79 °FPassing clouds.1 mph58%29.89 "HgN/A
4:00 PM79 °FPassing clouds.1 mph58%29.89 "HgN/A
3:30 PM81 °FPassing clouds.1 mph54%29.92 "HgN/A
3:00 PM79 °FPassing clouds.1 mph58%29.92 "HgN/A
2:30 PM77 °FPassing clouds.2 mph61%29.95 "HgN/A
2:00 PM75 °FPassing clouds.1 mph65%29.95 "HgN/A
1:30 PM77 °FPassing clouds.1 mph61%29.95 "HgN/A
1:00 PM77 °FPassing clouds.1 mph57%29.98 "HgN/A
12:30 PM75 °FPassing clouds.3 mph65%29.98 "HgN/A
12:00 PM75 °FPassing clouds.3 mph65%30.01 "HgN/A
11:30 AM75 °FPassing clouds.1 mph65%30.01 "HgN/A
11:00 AM72 °FPassing clouds.No wind78%30.01 "HgN/A
10:30 AM72 °FPassing clouds.1 mph73%30.04 "HgN/A
10:00 AM70 °FPassing clouds.1 mph78%30.04 "Hg4 mi
9:30 AM68 °FFog.No wind83%30.04 "Hg3 mi
9:00 AM68 °FFog.1 mph88%30.04 "Hg3 mi
8:30 AM66 °FFog.No wind94%30.04 "Hg2 mi
8:00 AM64 °FFog.No wind100%30.04 "Hg2 mi
7:30 AM64 °FFog.1 mph94%30.04 "Hg1 mi
7:00 AM64 °FFog.No wind94%30.04 "Hg1 mi
6:30 AM64 °FFog.No wind94%30.04 "Hg1 mi
6:00 AM64 °FFog.No wind94%30.04 "Hg1 mi
5:30 AM64 °FFog.No wind94%30.04 "Hg1 mi
5:00 AM64 °FFog.No wind94%30.04 "Hg1 mi
4:30 AM64 °FFog.No wind94%30.04 "Hg1 mi
4:00 AM64 °FFog.No wind94%30.04 "Hg1 mi
3:30 AM64 °FFog.1 mph94%30.04 "Hg2 mi
3:00 AM64 °FFog.1 mph94%30.04 "Hg2 mi
2:00 AM64 °FFog.2 mph94%30.04 "Hg1 mi
1:30 AM64 °FFog.No wind94%30.04 "Hg1 mi
1:00 AM64 °FFog.2 mph94%30.04 "Hg1 mi
12:30 AM64 °FFog.2 mph94%30.04 "Hg1 mi
12:00 AM64 °FFog.1 mph94%30.07 "Hg1 mi
11:30 PM
Sep 20
63 °FFog.1 mph100%30.04 "Hg1 mi
10:30 PM64 °FFog.5 mph94%30.04 "Hg2 mi
10:00 PM64 °FFog.2 mph94%30.04 "Hg1 mi
9:30 PM64 °FFog.2 mph94%30.07 "Hg1 mi
9:00 PM64 °FFog.2 mph94%30.07 "Hg1 mi
8:30 PM64 °FFog.2 mph100%30.07 "Hg2 mi
8:00 PM66 °FFog.1 mph94%30.07 "Hg3 mi
Weather by CustomWeather, © 2014

See weather overviewHow to use our weather pages